Date String (YYYY-MM-DD hh:mm:ss) UTC,Instrument flags,absolute air pressure of the measurement (hPa),sample flow rate (lpm),inlet stack bypass flow (lpm),air temperature of the measurement (°C),ambient temperature measured by the external sensor (°C),aerosol sample conditioner tube jacket temperature (°C),OPC LED temperature (°C),internal box temperature (°C),relative humidity of the measurement (%),span deviation,mass concentration of particles derived from Lorenz-Mie calculation of OPC scattering (μg/m³),mass concentration of particles derived from Lorenz-Mie calculation of OPC scattering (μg/m³),mass concentration of particles derived from Lorenz-Mie calculation of OPC scattering (μg/m³)
DateTimeUTC,F1_M11,P_M11,Q1_M11,Q2_M11,T1_M11,T2_M11,T3_M11,T4_M11,T5_M11,U1_M11,ZSPAN_M11,X2_M11,X0_M11,X1_M11
2023-10-10 16:00:00,SystemResetWarning,0824.0,5.00,000.00,028.8,027.1,000.0,037.4,030.5,11.1,0000.0,0003.16,0008.03,0002.48
2023-10-10 16:01:00,SystemResetWarning,0824.0,5.01,000.00,028.9,027.3,000.0,037.4,030.6,11.7,0000.0,0003.14,0008.89,0002.45
2023-10-10 16:02:00,SystemResetWarning,0824.0,5.01,000.00,028.9,027.4,000.0,037.4,030.6,12.1,0000.0,0003.16,0009.44,0002.44
2023-10-10 16:03:00,SystemResetWarning,0824.0,5.01,000.00,028.9,027.6,000.0,037.4,030.7,13.1,0000.0,0003.20,0009.72,0002.44
2023-10-10 16:04:00,SystemResetWarning,0824.0,4.99,000.00,029.0,027.7,000.0,037.4,030.7,13.6,0000.0,0003.18,0009.49,0002.39
2023-10-10 16:05:00,SystemResetWarning,0824.0,5.00,000.00,029.0,027.8,000.0,037.4,030.7,13.5,0000.0,0003.12,0009.18,0002.34
2023-10-10 16:06:00,SystemResetWarning,0824.0,5.00,000.00,029.0,027.8,000.0,037.4,030.8,13.2,0000.0,0003.10,0009.16,0002.31
2023-10-10 16:07:00,SystemResetWarning,0824.0,4.99,000.00,029.0,026.7,000.0,037.4,030.7,12.7,0000.0,0003.05,0009.42,0002.29
2023-10-10 16:08:00,SystemResetWarning,0824.0,5.00,000.00,029.0,025.1,000.0,037.3,030.5,12.6,0000.0,0003.09,0009.59,0002.30
2023-10-10 16:09:00,SystemResetWarning,0824.0,5.01,000.00,028.9,025.1,000.0,037.3,030.4,12.4,0000.0,0003.09,0009.76,0002.29
2023-10-10 16:10:00,SystemResetWarning,0824.0,5.01,000.00,028.8,025.3,000.0,037.3,030.3,12.6,0000.0,0003.05,0009.22,0002.31
2023-10-10 16:11:00,SystemResetWarning,0824.0,4.99,000.00,028.7,025.7,000.0,037.3,030.3,12.2,0000.0,0003.08,0009.09,0002.34
2023-10-10 16:12:00,SystemResetWarning,0824.0,5.00,000.00,028.7,026.0,000.0,037.3,030.3,12.2,0000.0,0003.12,0009.02,0002.37
2023-10-10 16:13:00,SystemResetWarning,0824.0,5.01,000.00,028.7,026.4,000.0,037.3,030.3,12.3,0000.0,0003.15,0009.31,0002.41
2023-10-10 16:14:00,SystemResetWarning,0824.0,5.01,000.00,028.7,026.7,000.0,037.3,030.4,12.4,0000.0,0003.16,0009.23,0002.45
2023-10-10 16:15:00,SystemResetWarning,0824.0,5.00,000.00,028.8,026.9,000.0,037.3,030.5,12.0,0000.0,0003.19,0009.99,0002.52
2023-10-10 16:16:00,SystemResetWarning,0824.0,4.99,000.00,028.8,027.1,000.0,037.3,030.5,11.9,0000.0,0003.22,0010.68,0002.58
2023-10-10 16:17:00,SystemResetWarning,0823.9,4.99,000.00,028.8,027.3,000.0,037.3,030.6,11.4,0000.0,0003.27,0010.97,0002.62
2023-10-10 16:18:00,SystemResetWarning,0824.0,5.00,000.00,028.8,027.5,000.0,037.3,030.6,12.2,0000.0,0003.33,0011.61,0002.66
2023-10-10 16:19:00,SystemResetWarning,0824.0,5.00,000.00,028.9,027.6,000.0,037.3,030.7,12.3,0000.0,0003.35,0012.37,0002.69
2023-10-10 16:20:00,SystemResetWarning,0824.0,5.00,000.00,028.9,027.7,000.0,037.4,030.7,11.5,0000.0,0003.36,0012.67,0002.73
2023-10-10 16:21:00,SystemResetWarning,0824.0,5.00,000.00,028.9,027.2,000.0,037.3,030.7,11.3,0000.0,0003.40,0013.74,0002.76
2023-10-10 16:22:00,SystemResetWarning,0823.9,5.00,000.00,028.9,025.6,000.0,037.3,030.4,11.7,0000.0,0003.41,0014.53,0002.78
2023-10-10 16:23:00,SystemResetWarning,0823.9,5.00,000.00,028.8,024.9,000.0,037.2,030.3,10.7,0000.0,0003.37,0014.09,0002.77
2023-10-10 16:24:00,SystemResetWarning,0823.9,5.01,000.00,028.7,025.2,000.0,037.2,030.2,11.2,0000.0,0003.32,0013.34,0002.73
2023-10-10 16:25:00,SystemResetWarning,0823.8,5.00,000.00,028.7,025.5,000.0,037.2,030.1,10.9,0000.0,0003.26,0013.02,0002.69
2023-10-10 16:26:00,SystemResetWarning,0823.8,4.99,000.00,028.6,025.9,000.0,037.2,030.2,10.6,0000.0,0003.21,0012.32,0002.63
2023-10-10 16:27:00,SystemResetWarning,0823.8,5.00,000.00,028.6,026.2,000.0,037.2,030.2,11.1,0000.0,0003.19,0011.93,0002.60
2023-10-10 16:28:00,SystemResetWarning,0823.8,5.02,000.00,028.6,026.5,000.0,037.2,030.3,10.5,0000.0,0003.15,0011.62,0002.57
2023-10-10 16:29:00,SystemResetWarning,0823.8,5.01,000.00,028.7,026.8,000.0,037.2,030.4,10.1,0000.0,0003.09,0010.70,0002.54
2023-10-10 16:30:00,SystemResetWarning,0823.8,4.99,000.00,028.7,027.0,000.0,037.2,030.4,9.8,0000.0,0003.05,0009.90,0002.54
2023-10-10 16:31:00,SystemResetWarning,0823.8,5.00,000.00,028.7,027.2,000.0,037.2,030.4,9.7,0000.0,0003.06,0009.89,0002.53
2023-10-10 16:32:00,SystemResetWarning,0823.8,4.99,000.00,028.8,027.4,000.0,037.2,030.5,11.4,0000.0,0002.97,0009.24,0002.49
2023-10-10 16:33:00,SystemResetWarning,0823.8,5.00,000.00,028.8,027.5,000.0,037.2,030.6,10.9,0000.0,0002.96,0008.38,0002.46
2023-10-10 16:34:00,SystemResetWarning,0823.8,5.00,000.00,028.8,027.4,000.0,037.2,030.6,12.3,0000.0,0003.00,0008.44,0002.46
2023-10-10 16:35:00,SystemResetWarning,0823.8,5.00,000.00,028.8,026.0,000.0,037.2,030.4,11.5,0000.0,0003.07,0008.98,0002.47
2023-10-10 16:36:00,SystemResetWarning,0823.8,5.01,000.00,028.7,024.9,000.0,037.1,030.2,10.8,0000.0,0003.07,0009.19,0002.47
2023-10-10 16:37:00,SystemResetWarning,0823.8,5.01,000.00,028.7,025.0,000.0,037.1,030.2,11.4,0000.0,0003.12,0010.10,0002.48
2023-10-10 16:38:00,SystemResetWarning,0823.8,4.99,000.00,028.6,025.4,000.0,037.1,030.1,10.8,0000.0,0003.18,0010.41,0002.51
2023-10-10 16:39:00,SystemResetWarning,0823.8,5.00,000.00,028.6,025.7,000.0,037.1,030.1,11.1,0000.0,0003.30,0011.07,0002.57
2023-10-10 16:40:00,SystemResetWarning,0823.7,5.00,000.00,028.5,026.1,000.0,037.1,030.2,11.7,0000.0,0003.45,0012.24,0002.63
2023-10-10 16:41:00,SystemResetWarning,0823.8,5.01,000.00,028.6,026.4,000.0,037.1,030.2,12.5,0000.0,0003.59,0013.36,0002.68
2023-10-10 16:42:00,SystemResetWarning,0823.8,5.01,000.00,028.6,026.7,000.0,037.1,030.3,12.8,0000.0,0003.65,0013.28,0002.73
2023-10-10 16:43:00,SystemResetWarning,0823.8,5.00,000.00,028.6,027.0,000.0,037.1,030.3,12.0,0000.0,0003.71,0013.67,0002.77
2023-10-10 16:44:00,SystemResetWarning,0823.8,4.99,000.00,028.6,027.2,000.0,037.1,030.4,10.9,0000.0,0003.78,0014.09,0002.81
2023-10-10 16:45:00,SystemResetWarning,0823.8,5.00,000.00,028.7,027.4,000.0,037.1,030.4,10.3,0000.0,0003.81,0013.98,0002.86
2023-10-10 16:46:00,SystemResetWarning,0823.8,5.00,000.00,028.7,027.5,000.0,037.1,030.5,9.7,0000.0,0003.89,0014.23,0002.92
2023-10-10 16:47:00,SystemResetWarning,0823.8,5.00,000.00,028.8,027.2,000.0,037.1,030.6,9.1,0000.0,0004.01,0015.69,0002.98
2023-10-10 16:48:00,SystemResetWarning,0823.7,5.00,000.00,028.7,025.6,000.0,037.1,030.4,8.3,0000.0,0004.05,0014.93,0003.00
2023-10-10 16:49:00,SystemResetWarning,0823.6,5.01,000.00,028.7,024.9,000.0,037.0,030.2,8.6,0000.0,0004.04,0015.42,0003.01
2023-10-10 16:50:00,SystemResetWarning,0823.5,5.01,000.00,028.6,025.1,000.0,037.0,030.2,9.3,0000.0,0003.96,0015.85,0002.99
2023-10-10 16:51:00,SystemResetWarning,0823.6,5.00,000.00,028.5,025.4,000.0,037.0,030.1,9.5,0000.0,0003.88,0015.30,0002.95
2023-10-10 16:52:00,SystemResetWarning,0823.6,5.00,000.00,028.5,025.8,000.0,037.0,030.1,9.3,0000.0,0003.75,0014.75,0002.90
2023-10-10 16:53:00,SystemResetWarning,0823.5,5.00,000.00,028.5,026.2,000.0,037.0,030.2,9.5,0000.0,0003.66,0014.16,0002.85
2023-10-10 16:54:00,SystemResetWarning,0823.5,5.00,000.00,028.5,026.5,000.0,037.0,030.2,9.5,0000.0,0003.62,0013.80,0002.80
2023-10-10 16:55:00,SystemResetWarning,0823.6,5.00,000.00,028.5,026.7,000.0,037.0,030.3,9.7,0000.0,0003.61,0013.67,0002.78
2023-10-10 16:56:00,SystemResetWarning,0823.6,5.00,000.00,028.6,027.0,000.0,037.0,030.3,9.4,0000.0,0003.55,0013.35,0002.73
2023-10-10 16:57:00,SystemResetWarning,0823.6,4.99,000.00,028.6,027.2,000.0,037.0,030.4,9.5,0000.0,0003.49,0012.92,0002.68
2023-10-10 16:58:00,SystemResetWarning,0823.6,5.00,000.00,028.6,027.4,000.0,037.1,030.4,9.7,0000.0,0003.37,0011.25,0002.63
2023-10-10 16:59:00,SystemResetWarning,0823.6,5.00,000.00,028.7,027.5,000.0,037.1,030.5,10.2,0000.0,0003.28,0010.93,0002.58
